Location: Drocourt
(49.0571°N, 1.7669°E)
Time: 07:38:52
(UTC+00:00)

Cosmos 1356 Rocket - Pass Details

Date: 09 February 2023
Orbit: 539 x 590 km, 81.2° (Epoch: 23 March)

Event Time Altitude Azimuth Distance (km) Brightness Sun altitude
Rises 18:50:41 0° 182° (S) 2,687 6.9 -18.0°
Reaches altitude 10° 18:52:50 10° 180° (S) 1,798 5.9 -18.4°
Maximum altitude 18:56:45 64° 98° (E) 602 3.2 -19.0°
Enters shadow 18:59:01 24° 23° (NNE) 1,154 4.7 -19.4°
